Temperature
15 15 15 15 15 15 15 15 15 15 16 16 16 16 17 17 17 17 17 17 17 17 18 18 18 18 18 18 18 18 18 18 18 18 18 18 18 18 18 18 18 18 18
14 14 15 15 15 15 15 15 15 15 15 16 16 16 16 17 17 17 17 17 17 17 17 18 18 18 18 18 18 18 18 18 18 18 18 18 18 18 18 18 18 18 18
14 14 14 14 14 14 15 15 15 15 15 15 16 16 16 16 17 17 17 17 17 17 17 17 18 18 18 18 18 18 18 18 18 18 18 18 18 18 18 18 18 18 18
14 14 14 14 14 14 14 14 15 15 15 15 15 15 16 16 16 17 17 17 17 17 17 17 17 17 18 18 18 18 18 18 18 18 18 18 18 18 18 18 18 18 17
14 14 14 14 14 14 14 14 14 14 15 15 15 15 16 16 16 16 16 17 17 17 17 17 17 17 17 18 18 18 18 18 18 18 18 18 18 18 18 18 18 17 17
13 13 13 13 13 13 14 14 14 14 14 15 15 15 15 16 16 16 16 16 17 17 17 17 17 17 17 17 17 17 18 18 18 18 18 18 18 18 18 18 17 17 17
13 13 13 13 13 13 13 14 14 14 14 14 15 15 15 16 16 16 16 16 16 17 17 17 17 17 17 17 17 17 17 17 18 18 18 18 18 18 18 18 17 17 17
13 13 13 13 13 13 13 13 13 14 14 14 14 14 15 15 16 16 16 16 16 16 17 17 17 17 17 17 17 17 17 17 17 17 17 17 17 18 17 17 17 17 17
13 13 13 13 13 13 13 13 13 13 13 14 14 14 14 15 15 16 16 16 16 16 17 17 17 17 17 17 17 17 17 17 17 17 17 17 17 17 17 17 17 17 17
13 13 13 13 13 13 13 13 13 13 13 13 14 14 14 14 15 15 16 16 16 16 16 16 17 17 17 17 17 17 17 17 17 17 17 17 17 17 17 17 17 17 17
13 13 13 13 13 13 13 13 13 13 13 13 13 14 14 14 14 15 15 15 16 16 16 16 16 16 17 17 17 17 17 17 17 17 17 17 17 17 17 17 17 17 17
13 13 13 13 13 13 13 13 13 13 13 13 13 13 14 14 14 14 15 15 15 15 15 16 16 16 16 16 16 16 17 17 17 17 17 17 17 17 17 17 17 17 17
13 13 13 13 13 13 13 13 13 13 13 13 13 13 13 14 14 14 14 14 15 15 15 15 15 16 16 16 16 16 16 16 16 16 16 16 17 17 17 17 17 17 17
13 13 13 13 13 13 13 13 13 13 13 13 13 13 13 13 14 14 14 14 14 14 15 15 15 15 15 16 16 16 16 16 16 16 16 16 16 16 16 16 16 16 17
13 13 13 13 13 13 13 13 13 13 13 13 13 13 13 13 14 14 14 14 14 14 14 14 14 15 15 15 15 15 15 15 16 16 16 16 16 16 16 16 16 16 16
13 13 13 13 13 13 13 13 13 13 13 13 13 13 13 13 13 13 14 14 14 14 14 14 14 14 14 15 15 15 15 15 15 15 15 15 16 16 16 16 16 16 16
13 13 13 13 13 13 13 13 13 13 13 13 13 13 13 13 13 13 13 13 14 14 14 14 14 14 14 14 14 14 15 15 15 15 15 15 15 15 15 15 15 15 16
13 13 13 13 13 13 13 13 13 13 13 13 13 13 13 13 13 13 13 13 13 13 14 14 14 14 14 14 14 14 14 14 14 14 15 15 15 15 15 15 15 15 15
13 13 13 13 13 13 13 13 13 13 13 13 13 13 13 13 13 13 13 13 13 13 13 13 13 13 13 13 14 14 14 14 14 14 14 14 14 14 14 15 15 15 15
13 13 13 13 13 13 13 13 13 13 13 13 13 13 13 13 13 13 13 13 13 13 13 13 13 13 13 13 13 13 14 13 14 14 14 14 14 14 14 14 14 14 15
13 13 13 13 13 13 13 13 13 13 13 13 13 13 13 13 13 13 13 13 13 13 13 13 13 13 13 13 13 13 13 13 13 13 13 14 14 14 14 14 14 14 14
13 13 13 13 13 13 13 13 13 13 13 13 13 13 13 13 13 13 13 13 13 13 13 13 13 13 13 13 13 13 13 13 13 13 13 13 13 13 13 14 14 14 14
14 14 13 13 13 13 13 13 13 13 13 13 13 13 13 13 13 13 13 13 13 13 13 13 13 13 12 12 12 12 12 12 12 12 13 13 13 13 13 13 13 13 13
14 14 14 14 13 13 13 13 13 13 13 13 13 13 13 13 13 13 13 13 13 13 12 12 12 12 12 12 12 12 12 12 12 12 12 12 12 13 13 13 13 13 13
14 14 14 14 14 13 13 13 13 13 13 13 13 13 13 13 13 13 13 13 13 12 12 12 12 12 12 12 12 12 12 12 12 12 12 11 12 12 12 12 12 12 12
14 14 14 14 13 13 13 13 13 13 13 13 13 12 12 12 12 12 12 12 12 12 12 12 12 12 12 12 12 11 11 11 11 11 11 11 11 11 11 12 12 12 12
Wind_Speed
2 2 2 2 2 2 2 2 2 3 3 3 3 3 4 4 4 5 6 10 12 13 13 13 12 12 12 12 12 13 13 12 12 12 13 12 11 12 11 12 11 11 12
1 2 2 2 2 2 2 1 2 3 3 3 3 3 3 2 3 4 6 9 12 12 13 13 13 12 13 13 13 13 14 14 13 13 13 12 12 12 11 11 11 11 11
3 2 2 3 3 3 2 1 1 1 1 2 3 3 3 2 3 4 6 6 8 11 13 13 13 13 13 14 14 14 14 14 14 14 14 13 13 12 11 11 11 11 11
4 2 2 3 3 3 2 1 1 1 1 2 2 3 2 2 3 3 4 5 5 7 10 12 12 12 13 14 14 14 15 15 15 15 15 14 14 13 12 12 12 12 12
3 1 2 2 2 2 2 2 1 0 1 2 2 2 2 2 3 3 3 3 5 6 7 9 11 12 13 14 14 15 15 16 16 16 15 15 14 14 13 13 13 13 12
2 1 2 3 2 1 2 2 1 1 1 1 2 2 2 2 2 2 2 2 3 5 6 7 7 9 12 14 14 15 15 16 16 17 16 16 15 15 14 14 13 13 13
2 1 2 2 1 1 1 2 1 1 1 1 1 2 3 2 1 1 2 2 2 3 4 6 6 6 7 12 14 14 15 15 16 17 17 17 16 16 15 15 15 14 13
2 1 1 1 1 1 2 2 1 0 1 1 2 2 2 4 2 1 1 2 3 2 2 4 5 6 6 7 10 13 14 14 16 17 17 17 17 16 16 16 15 15 15
2 2 1 1 1 1 1 1 0 1 0 1 1 3 2 1 2 3 1 1 2 2 2 2 4 5 7 7 8 11 12 13 15 16 17 17 17 17 17 17 16 16 15
2 2 1 1 1 1 1 1 1 2 2 0 1 0 1 2 1 2 3 1 1 2 2 2 2 3 6 6 8 9 11 12 14 15 15 16 17 17 17 18 17 17 17
3 2 1 1 1 1 1 1 0 2 2 2 1 0 1 1 1 2 1 2 2 1 1 1 2 2 4 6 7 9 11 12 13 13 14 15 15 16 17 18 18 18 18
3 3 2 2 1 1 1 0 1 2 2 2 2 2 2 1 1 2 1 1 1 1 1 0 0 1 2 3 5 8 10 11 12 12 13 13 14 15 16 17 18 18 19
2 3 2 2 1 1 1 0 1 1 1 2 2 2 2 2 2 2 2 1 0 1 2 2 1 0 1 1 1 4 7 9 10 11 12 12 12 14 15 15 16 17 18
3 3 2 2 2 1 0 1 1 0 1 1 2 2 1 1 2 2 3 3 1 1 1 1 1 1 1 1 1 3 4 7 9 10 10 10 11 11 12 14 14 15 16
2 2 1 1 1 1 1 1 1 1 1 1 1 2 1 1 1 1 2 3 4 2 0 1 1 1 2 1 0 1 3 5 7 9 10 10 11 11 11 12 13 13 13
1 1 1 1 1 1 1 1 1 1 1 0 1 2 1 1 1 1 1 2 3 3 1 1 1 1 1 1 1 1 2 4 6 7 9 9 10 10 10 11 11 12 12
1 1 1 1 1 1 1 1 1 1 2 1 1 1 1 1 1 1 1 2 2 3 2 1 1 0 1 1 1 1 2 2 3 6 7 8 8 9 9 10 10 11 11
1 0 0 1 1 1 1 2 1 1 1 1 1 1 0 1 1 1 2 2 2 2 3 1 1 1 0 0 1 1 1 2 3 5 7 7 8 8 9 9 10 10 11
1 0 1 1 0 1 1 1 1 1 1 1 1 2 1 3 2 2 2 2 1 1 2 2 0 1 1 1 1 2 2 2 2 3 4 6 7 8 9 9 10 11 12
2 1 1 1 1 1 1 1 2 2 2 1 1 1 2 3 3 2 2 2 2 2 2 2 1 0 0 1 1 1 2 2 2 2 2 3 5 7 8 9 11 11 12
3 2 2 1 0 1 1 2 2 2 2 2 2 1 1 2 3 3 2 2 3 2 2 2 1 0 0 1 1 1 1 2 2 1 2 2 2 2 4 7 9 11 12
3 2 2 2 1 1 2 4 3 2 2 2 1 1 1 1 1 2 3 3 4 4 3 2 1 1 1 1 1 0 0 1 2 2 2 3 1 2 3 4 8 9 10
3 3 3 2 2 2 2 4 4 3 2 1 0 0 1 1 1 1 2 3 3 1 4 4 3 3 2 3 2 0 1 1 2 2 1 2 2 2 3 5 7 8 9
4 4 4 4 2 3 3 4 4 3 2 1 0 1 1 1 1 2 3 3 2 2 1 2 3 3 3 3 3 2 2 1 2 2 0 1 2 2 3 3 5 5 6
5 4 4 4 4 3 4 4 5 3 2 1 1 0 1 0 0 3 4 3 3 3 3 3 2 1 1 1 2 2 1 1 2 2 1 0 2 2 2 3 4 5 5
6 5 4 4 5 4 4 5 6 4 3 1 1 1 1 1 2 4 4 4 3 1 2 3 4 5 4 3 3 2 2 1 0 1 2 1 1 2 3 3 2 4 4
Wind_Direction
341 335 322 327 311 302 282 269 258 252 246 243 243 243 240 230 230 227 235 226 216 207 199 193 191 189 188 186 185 184 180 177 175 173 171 168 164 162 161 159 156 155 154
10 5 355 338 321 311 284 258 255 250 243 233 247 254 243 234 237 222 231 229 217 211 210 202 197 194 193 192 190 187 183 181 181 180 177 173 169 168 165 165 163 162 162
30 19 1 338 318 327 323 316 303 272 259 250 251 253 250 239 229 228 223 220 218 218 217 210 204 201 199 197 194 191 187 185 184 183 182 180 176 174 173 171 171 170 168
27 22 356 327 323 343 343 335 335 333 298 277 262 255 246 245 231 229 218 210 210 218 222 216 211 209 205 200 197 195 192 189 188 187 186 184 182 180 180 179 179 177 176
23 25 330 314 339 345 343 326 350 315 279 288 270 253 243 241 242 231 212 205 207 214 219 221 218 215 211 204 201 198 197 194 191 190 189 187 185 185 185 184 184 182 182
9 6 311 317 337 353 338 328 313 326 255 264 292 305 273 252 231 208 206 201 206 208 208 212 214 218 214 208 204 203 200 198 195 195 193 191 190 189 189 189 189 189 189
342 352 322 327 341 349 310 312 317 331 319 351 40 352 330 292 250 217 196 192 211 206 198 199 200 205 213 212 209 207 205 203 200 199 197 196 194 194 193 193 194 195 196
332 344 338 321 318 327 341 345 38 49 343 52 100 69 357 351 330 269 197 198 210 202 210 206 201 203 207 203 210 209 208 208 206 204 202 200 199 199 199 199 200 202 203
304 320 327 306 299 269 280 295 164 144 157 328 98 129 132 239 307 326 284 221 201 196 218 208 205 210 210 203 204 210 211 211 211 211 208 205 203 204 204 205 205 206 207
288 301 320 312 304 287 272 273 184 163 141 133 325 70 152 165 134 340 340 326 251 195 211 212 200 199 203 198 206 208 210 211 214 214 214 212 210 209 209 209 209 210 210
302 302 315 325 315 290 269 278 174 146 148 155 154 142 74 63 107 139 336 335 350 315 227 221 193 177 188 191 202 209 210 213 217 218 217 216 216 216 216 215 214 215 215
305 307 324 326 303 285 259 248 184 158 162 158 155 146 143 139 164 145 167 278 314 308 340 21 117 164 169 184 205 209 209 213 219 223 224 222 222 222 222 222 221 220 221
286 293 312 310 303 283 262 175 119 149 166 159 165 167 163 174 168 154 146 156 42 340 12 26 20 89 110 128 211 213 218 220 225 227 227 227 226 226 227 228 229 227 226
254 268 285 287 290 304 360 101 109 166 146 162 174 162 159 186 165 157 156 145 104 21 20 358 359 26 39 61 242 207 229 227 229 230 229 230 230 230 230 229 231 233 232
261 281 286 303 310 338 21 82 102 105 112 139 146 143 143 176 151 154 152 149 146 140 275 313 351 345 1 33 188 222 238 238 236 231 229 230 230 229 231 231 233 235 237
283 324 340 350 354 356 30 67 73 82 96 74 134 132 133 158 133 142 144 139 143 149 169 246 250 278 327 11 32 334 268 257 239 232 231 232 231 230 233 235 236 238 239
278 295 338 15 28 31 41 68 57 105 96 74 87 136 178 167 138 131 121 118 123 131 151 291 305 312 22 30 346 338 309 284 258 245 239 236 233 231 234 238 240 242 243
256 236 82 62 59 64 65 87 84 100 119 119 118 116 114 126 124 125 122 122 123 130 146 168 336 352 348 299 293 296 310 285 265 254 244 238 236 236 237 241 245 247 247
215 282 109 111 94 75 75 79 95 87 113 136 137 138 136 112 107 111 121 132 130 115 128 144 253 341 351 0 19 355 347 327 310 282 256 245 242 242 242 246 248 249 250
175 174 160 180 189 147 105 77 81 82 83 86 109 137 140 140 141 135 124 138 138 118 117 131 150 328 341 339 50 8 347 338 324 325 307 274 255 251 249 250 252 254 253
192 186 169 177 185 149 150 130 110 106 92 74 55 63 107 140 155 146 141 152 144 136 132 134 139 57 352 4 341 316 326 325 320 327 326 306 281 267 265 261 259 259 256
199 179 181 181 201 214 160 143 135 117 115 104 69 33 27 41 84 97 113 131 152 158 163 161 174 189 244 239 246 276 306 1 323 321 352 313 311 282 275 268 265 261 260
195 193 201 188 205 242 180 155 144 132 130 135 98 29 39 39 63 93 76 71 65 108 170 165 179 209 216 217 188 225 248 245 254 274 343 307 314 294 283 294 285 268 265
198 202 206 200 207 243 207 172 153 126 110 110 194 193 141 346 12 129 109 82 49 30 81 155 180 212 223 216 191 187 211 280 295 299 223 277 307 299 304 314 311 300 292
200 205 202 197 201 244 224 187 154 130 118 88 10 55 148 143 303 137 118 104 68 26 44 75 116 128 131 149 144 112 61 44 342 320 354 62 308 309 315 317 329 335 326
199 198 202 202 201 220 218 189 164 147 148 158 18 355 26 117 119 128 129 125 109 25 30 35 36 31 35 44 67 116 155 146 285 317 333 4 315 344 333 316 325 346 346
Height
1501 1501 1500 1500 1499 1499 1499 1499 1499 1500 1500 1501 1502 1503 1505 1506 1508 1509 1511 1512 1514 1515 1516 1517 1518 1520 1521 1522 1524 1525 1527 1528 1530 1532 1534 1536 1537 1539 1541 1542 1543 1545 1546
1500 1499 1498 1498 1497 1497 1497 1497 1497 1498 1498 1499 1500 1501 1502 1504 1505 1507 1509 1510 1512 1513 1514 1516 1517 1518 1520 1521 1523 1524 1526 1528 1529 1531 1533 1535 1537 1539 1541 1542 1544 1545 1546
1498 1497 1496 1496 1495 1495 1495 1495 1495 1495 1496 1496 1497 1498 1500 1501 1502 1504 1506 1508 1510 1511 1512 1514 1515 1517 1519 1520 1522 1523 1525 1527 1529 1531 1533 1535 1537 1539 1540 1542 1543 1545 1546
1496 1495 1494 1494 1493 1492 1492 1492 1493 1493 1493 1494 1494 1495 1497 1498 1500 1502 1504 1506 1507 1509 1511 1512 1514 1516 1517 1519 1521 1522 1524 1526 1528 1530 1532 1534 1536 1538 1539 1541 1543 1545 1546
1495 1493 1492 1492 1491 1490 1490 1490 1490 1491 1491 1491 1492 1493 1494 1495 1497 1499 1501 1503 1505 1507 1509 1510 1512 1514 1515 1517 1519 1521 1523 1524 1526 1529 1531 1533 1535 1537 1538 1540 1542 1544 1545
1493 1492 1490 1490 1489 1489 1488 1488 1488 1488 1489 1489 1490 1491 1492 1493 1495 1497 1499 1501 1503 1505 1506 1508 1510 1512 1514 1516 1518 1519 1521 1523 1525 1527 1529 1531 1533 1535 1537 1539 1541 1543 1544
1491 1490 1489 1488 1487 1487 1486 1486 1486 1486 1487 1487 1488 1489 1490 1491 1493 1494 1496 1498 1500 1502 1504 1506 1508 1510 1512 1514 1516 1518 1520 1521 1524 1526 1528 1530 1532 1534 1536 1538 1540 1541 1543
1490 1489 1488 1487 1486 1485 1485 1484 1484 1485 1485 1486 1487 1487 1488 1490 1491 1492 1494 1496 1498 1500 1501 1504 1506 1508 1510 1512 1514 1516 1518 1520 1522 1524 1526 1528 1530 1532 1534 1536 1538 1540 1541
1489 1488 1487 1486 1485 1484 1483 1483 1483 1483 1484 1485 1486 1487 1488 1488 1489 1491 1492 1494 1496 1498 1499 1501 1503 1505 1508 1510 1512 1514 1516 1518 1520 1522 1524 1526 1528 1530 1532 1534 1536 1537 1539
1489 1487 1486 1485 1484 1483 1482 1482 1482 1482 1483 1483 1484 1486 1487 1488 1489 1490 1491 1492 1494 1496 1497 1499 1501 1503 1505 1508 1510 1511 1513 1515 1518 1519 1521 1523 1525 1527 1529 1531 1533 1535 1536
1488 1487 1485 1484 1483 1482 1481 1481 1481 1481 1482 1482 1483 1484 1486 1487 1488 1489 1489 1491 1492 1494 1495 1497 1499 1501 1503 1505 1507 1509 1511 1513 1515 1517 1519 1521 1523 1525 1526 1528 1530 1531 1533
1487 1486 1485 1483 1482 1481 1480 1480 1480 1480 1481 1482 1482 1483 1484 1486 1487 1488 1489 1489 1491 1492 1494 1495 1497 1499 1501 1503 1505 1507 1509 1510 1512 1514 1516 1518 1519 1521 1523 1525 1526 1528 1530
1487 1485 1484 1483 1482 1481 1480 1480 1479 1480 1480 1481 1481 1482 1483 1484 1486 1487 1488 1488 1489 1491 1492 1493 1495 1496 1498 1500 1502 1504 1505 1507 1509 1511 1513 1514 1516 1518 1520 1521 1523 1525 1526
1487 1485 1484 1483 1481 1481 1480 1480 1479 1479 1479 1480 1480 1481 1482 1483 1484 1485 1487 1488 1488 1489 1490 1492 1493 1494 1496 1498 1499 1501 1503 1504 1506 1507 1509 1511 1513 1514 1516 1517 1519 1520 1522
1486 1485 1484 1483 1482 1481 1480 1480 1479 1479 1479 1480 1480 1481 1481 1482 1483 1484 1485 1486 1488 1488 1489 1490 1491 1492 1493 1495 1497 1498 1500 1501 1503 1504 1506 1507 1509 1511 1512 1513 1515 1516 1518
1486 1485 1484 1483 1482 1481 1480 1480 1480 1479 1479 1479 1480 1480 1481 1482 1482 1483 1484 1485 1486 1487 1488 1488 1489 1490 1491 1493 1494 1496 1497 1498 1500 1501 1502 1503 1505 1506 1508 1509 1510 1512 1513
1486 1485 1484 1483 1482 1481 1481 1480 1480 1480 1479 1479 1480 1480 1481 1481 1482 1482 1483 1484 1485 1486 1486 1487 1488 1489 1490 1491 1492 1493 1494 1495 1496 1497 1498 1500 1501 1502 1503 1504 1505 1507 1508
1486 1485 1484 1483 1482 1482 1481 1481 1480 1480 1479 1479 1480 1480 1480 1481 1481 1482 1482 1483 1484 1484 1485 1486 1487 1488 1488 1489 1490 1490 1491 1492 1493 1494 1495 1496 1496 1497 1498 1500 1501 1501 1503
1485 1485 1484 1483 1483 1482 1482 1481 1481 1480 1480 1480 1480 1480 1480 1481 1481 1481 1482 1482 1483 1483 1484 1485 1485 1486 1487 1487 1488 1488 1489 1490 1490 1490 1491 1492 1492 1493 1494 1495 1496 1497 1497
1485 1484 1484 1483 1483 1482 1482 1481 1481 1480 1480 1480 1480 1480 1480 1481 1481 1481 1481 1481 1482 1483 1483 1484 1485 1485 1486 1486 1486 1486 1486 1487 1487 1487 1488 1488 1489 1489 1490 1490 1491 1492 1493
1484 1483 1483 1483 1483 1482 1482 1481 1481 1481 1480 1480 1480 1480 1480 1480 1480 1480 1481 1481 1481 1482 1482 1483 1483 1484 1484 1484 1484 1484 1484 1484 1484 1484 1484 1485 1485 1485 1486 1486 1486 1487 1488
1482 1482 1482 1482 1482 1481 1481 1481 1481 1480 1480 1480 1480 1480 1480 1480 1480 1480 1480 1480 1481 1481 1481 1481 1482 1482 1483 1483 1483 1483 1482 1482 1481 1482 1481 1482 1482 1482 1482 1482 1482 1483 1483
1480 1481 1481 1481 1481 1481 1481 1481 1480 1480 1480 1480 1480 1479 1479 1479 1479 1479 1479 1479 1480 1480 1481 1481 1481 1481 1482 1482 1481 1481 1481 1481 1480 1480 1479 1478 1479 1478 1478 1478 1478 1478 1479
1478 1479 1479 1479 1479 1479 1480 1480 1480 1480 1480 1479 1479 1479 1479 1479 1479 1479 1479 1479 1479 1479 1479 1480 1480 1480 1480 1480 1480 1480 1480 1479 1479 1478 1478 1477 1476 1476 1476 1475 1475 1475 1475
1476 1476 1477 1477 1477 1478 1478 1478 1478 1478 1478 1479 1479 1479 1478 1478 1478 1478 1478 1478 1478 1478 1478 1479 1479 1479 1479 1479 1479 1479 1478 1478 1477 1477 1476 1475 1474 1474 1473 1473 1473 1472 1472
1473 1474 1474 1475 1475 1475 1476 1476 1476 1476 1477 1477 1477 1477 1477 1477 1477 1477 1477 1477 1477 1477 1477 1477 1477 1477 1477 1477 1477 1477 1477 1476 1475 1475 1475 1474 1473 1472 1471 1470 1470 1470 1469